Lake Placid, NY (12946)

5:26 PM EDT on September 04, 2015 (GMT -0400)
Intervale Lowlands | | Change Station
CLOSE
Current Station
Personal Weather Station
Location: Lake Placid, NY
Elevation: 1680 ft
Nearby Weather Stations

Elev 1680 ft 44.27 °N, 73.95 °W | Updated 49 seconds ago

Clear
Clear
77.1 °F
Feels Like 79 °F
N
3.0
Wind Variable Wind from NE
Gusts 6.0 mph

Today
High -- | Low -- °F
--% Chance of Precip.
Yesterday
High -- | Low -- °F
Precip. -- in
6:22 AM 7:27 PM
Waning Gibbous, 56% visible
Pressure 30.17 in
Visibility 10.0 miles
Clouds Clear
Heat Index 79 °F
Dew Point 56 °F
Humidity 48%
Rainfall 0.00 in
Snow Depth Not available.
UV 3 out of 12
Pollen 7.70 out of 12
Air Quality Not available.
Flu Activity Not available.
METAR KSLK 042051Z AUTO 06008KT 10SM CLR 26/09 A3017 RMK AO2 SLP217 T02560089 55001
Pressure 30.17 in
Visibility 10.0 miles
Clouds Clear
Heat Index 79 °F
Dew Point 56 °F
Humidity 48%
Rainfall 0.00 in
Snow Depth Not available.
UV 3 out of 12
Pollen 7.70 out of 12
Air Quality Not available.
Flu Activity Not available.
METAR KSLK 042051Z AUTO 06008KT 10SM CLR 26/09 A3017 RMK AO2 SLP217 T02560089 55001

10-Day Weather Forecast

×

Almanac

Astronomy

Sep. 04, 2015 Rise Set
Actual Time
Civil Twilight
Nautical Twilight
Astronomical Twilight
Moon
Length of Visible Light
Length of Day
Tomorrow will be .
, % of the Moon is Illuminated

Today's Extremes

State Highs State Lows

Community

WunderPhotos

Upload Photos

1,852,297 photos uploaded!

WunderBlogs® & News

Nearby

Air Quality

  Air Quality AQ Index Pollutant
Not available.

Snow Depth

Station Depth Elevation

Earthquake Activity

City Distance Mag. Time & Date
Minimum magnitude displayed is 2.5.

Coastal Water Temperatures

Place Temperature

Stations

Nearby Weather Stations

Station Location Temp. Windchill Dew Point Humidity Wind Precip. Elev Updated Type